ATLAS 5 CENTAUR DEB, 44893

Orbit data source: Space-Track

ATLAS 5 CENTAUR DEB, 44893 is space debris in HEO originally from a launch on Wed, 17 Sep 2014 UTC launched from the Air Force Eastern Test Range (AFETR). Debris objects in space refer to the collection of defunct objects orbiting the Earth. Examples of debris include non-operational satellites, rocket bodies, and fragments generated from explosions, collisions, or faulty payload assembly.

Loading next visibility...
Identifier
44893, 2014-055CJ
Orbit
HEO
Country
Flag of USUS
Related business
Flag of USUnited Launch Alliance/Lockheed Martin (US)
Manufacturer
Unknown
Mission
Spacecraft
Bus & Motor
Unknown
Mass
Unknown
Launch date (UTC)
2014-09-17 (12 years ago)
Launch vehicle
Unknown
Launch site
Air Force Eastern Test Range (AFETR)
Object type
Payload
Rocket body
Debris
Shape & HBR
Unknown shape, 1.1 m
Radar Cross Section
Medium (>0.1 m² and <1 m²)

Expand to show TLE details & history
Last TLE update: 3 weeks ago

TLE from 3 weeks ago
0 ATLAS 5 CENTAUR DEB
1 44893U 14055CJ  26214.95795948 -.00000093  00000-0  00000-0 0  9997
2 44893  20.5409 124.9944 4803151 199.7025 132.4963  1.88243902 46137
Epoch: 2026-08-02T22:59Z
TLE epoch observation values (Epoch: 2026-08-02T22:59:27.699Z)
Latitude
0.00005°
Longitude
-171.3986°
Altitude
32,558.517 km
Speed
2.468 km/s
True Right ascension
08h 20m 03s
True Declination
0° 00' 00"
Sunlit
Object was in daylight at epoch
Visualization orbit readout
Latitude
Unknown
Longitude
Unknown
Altitude
Unknown
Speed
Unknown
Apparent Right ascension
Unknown
Apparent Declination
Unknown
Sunlit
N/A
Visualization observer readout
Local Sidereal Time
23:03:54
Azimuth
Unknown
Elevation
Unknown
Doppler factor
Unknown
Orbital elements
Apogee altitude
34,639.67 km
Perigee altitude
8,021.726 km
Semi-major axis
27,708.835 km
Eccentricity
0.48032
Inclination
20.5409°
RAAN
124.9944°
Arg. of periapsis
199.7025°
True anomaly
160.30681°
Mean anomaly
132.4963°
Eccentric anomaly
147.34538°
Mean motion
0.47056 °/min
Orbital period
765.04 mins
BSTAR
0
Loading maneuver chart data...
Computing Atmospheric mass density...

Documentation

Showing up to 5 results
|